Location: Peebles
(55.6412°N, 3.1714°W)
Time: 09:27:32
(UTC+01:00)

FENGYUN 1C DEB - Pass Details

Date: 05 July 2022
Orbit: 757 x 834 km, 99.1° (Epoch: 04 August)

Event Time Altitude Azimuth Distance (km) Brightness Sun altitude
Rises 01:30:11 0° 107° (ESE) 3,350 ? -11.5°
Reaches altitude 10° 01:33:12 10° 89° (E) 2,408 ? -11.5°
Maximum altitude 01:36:44 19° 47° (NE) 1,871 ? -11.4°
Drops below altitude 10° 01:40:15 10° 5° (N) 2,383 ? -11.4°
Sets 01:43:12 0° 348° (NNW) 3,301 ? -11.4°
